Weather Roundup
Issued by NWS Chicago, IL

Home | Current Version | Previous Version | Text Only | Print | Product List | Glossary Off
Versions: 1 2 3 4 5 6 7 8 9 10 11 12 13 14 15 16 17 18 19 20 21 22 23 24 25 26 27 28 29 30 31 32 33 34 35 36 37 38 39 40 41 42 43 44 45 46 47 48 49 50

000
NZUS59 KLOT 260103
HRRLOT

CHICAGO AREA WEATHER ROUNDUP
NATIONAL WEATHER SERVICE CHICAGO/ROMEOVILLE IL
800 PM CDT THU MAY 25 2017

NOTE: "FAIR" INDICATES FEW OR NO CLOUDS BELOW 12,000 FEET WITH NO
SIGNIFICANT WEATHER AND/OR OBSTRUCTIONS TO VISIBILITY.

* THESE STATIONS ARE NOT UNDER NWS QUALITY CONTROL. THEY ALSO MAY NOT
  REPORT WEATHER SUCH AS PRECIPITATION OR FOG.

ILZ005-006-012>014-019>023-260200-
NORTHEAST ILLINOIS

CITY           SKY/WX    TMP DP  RH WIND       PRES   REMARKS
OHARE          PTCLDY    62  49  62 NE7       29.70R
MIDWAY         PTCLDY    62  50  64 N6        29.70R
AURORA         MOCLDY    65  56  72 W7        29.70R
LANSING*       CLEAR     56  52  86 NE6       29.71R
WAUKEGAN       CLEAR     57  51  80 N6        29.70R
DUPAGE AIRPORT MOCLDY    62  54  74 CALM      29.70R
WHEELING       CLEAR     59  51  75 NE3       29.71R
NORTHERLY ISL    N/A     58  49  72 N7          N/A
$$

WIZ051-052-058>065-066-070>072-260200-
SOUTHEAST WISCONSIN

CITY           SKY/WX    TMP DP  RH WIND       PRES   REMARKS
MILWAUKEE      PTCLDY    57  52  83 N9        29.70R
KENOSHA*       CLEAR     58  51  78 NE8       29.71R
RACINE*        MOCLDY    55  50  83 N9        29.72R
WAUKESHA       PTCLDY    61  52  72 E5        29.71R
$$

INZ001>003-010>013-019-020-260200-
NORTHWEST INDIANA

CITY           SKY/WX    TMP DP  RH WIND       PRES   REMARKS
GARY*          PTCLDY    57  52  82 CALM      29.72R
MICHIGAN CITY* NOT AVBL
RENSSELAER*    NOT AVBL
VALPARAISO     CLEAR     57  51  80 NW6       29.71R
$$

LMZ740>746-260200-
SOUTHERN LAKE MICHIGAN

STATION/POSITION TIME  SKY/WX   TEMP WIND        PRES    VSBY
                                AIR  DIR/SP/G
                 (UTC)          (F)  (DEG/KT/KT) (MB)    (MI)
HARRISON CRIB    0040            54  330/ 10/ 11   N/A
BURNHAM HARBOR   0100            58  350/  8/ 11   N/A
CALUMET HARBOR   0030            56  340/  5/  8 1005.4R
BURNS HARBOR     0030            54  330/  1/  4 1006.4R
MICHIGAN CITY    0040            51  310/  6/  9   N/A
$$

ABBREVIATIONS USED IN REMARKS
   TC - TEMPERATURE IN CELSIUS
  WCI - WIND CHILL INDEX
   HX - HEAT INDEX
  VSB - VISIBILITY
$$




USA.gov is the U.S. government's official web portal to all federal, state and local government web resources and services.